Torna al catalogo

ARIANE 2 DEB

LostGTO
NORAD 33551·DEBRIS·🇫🇷 France

Lanciato Jan 27, 1989 da Guiana Space Centre

Loading…

TLE

ObsoletoSource: Space-Track

Epoca: Sep 17, 2025, 22:29 UTC

1 33551U 89006AT  25260.93683366 -.00000123  00000-0  00000-0 0  9996
2 33551   8.4120 199.0593 6870791 211.7634 359.7714  2.20986347 92000

Traccia ARIANE 2 DEB in tempo reale con AllMySat

Download on the App Store